Weather History for San Jose, Costa Rica

Change the Weather History Date:

Monday, December 10, 2012

  Actual Average Record
Temperature  
Mean Temperature 76 °F -  
Max Temperature 87 °F 79 °F 87 °F (1997)
Min Temperature 65 °F 64 °F 59 °F (2013)
Cooling Degree Days 11    
Growing Degree Days 26 (Base 50)    
Moisture  
Dew Point 64 °F    
Average Humidity 70    
Maximum Humidity 94    
Minimum Humidity 32    
Precipitation  
Precipitation 0.00 in 0.03 in - ()
Sea Level Pressure  
Sea Level Pressure 29.92 in    
Wind  
Wind Speed 7 mph ()    
Max Wind Speed 13 mph    
Max Gust Speed -    
Visibility 7.1 miles    
Events Fog    
Averages and records for this station are not official NWS values.
T = Trace of Precipitation, MM = Missing Value Source: Averaged Metar Reports

Daily Weather History Graph

Daily Weather History Graph

Search for Another Location

Airport:

Trip Planner

Search our weather history database for the weather conditions in past years. The results will help you decide how hot, cold, wet, or windy it might be!

Date:

Astronomy

Dec. 10, 2012 Rise Set
Actual Time 5:43 AM CST 5:16 PM CST
Civil Twilight 5:20 AM CST 5:39 PM CST
Nautical Twilight 4:54 AM CST 6:05 PM CST
Astronomical Twilight 4:28 AM CST 6:31 PM CST
Moon 2:46 AM CST (12/10) 2:49 PM CST (12/10)
Length of Visible Light 12h 18m
Length of Day
11h 33m
Waning Crescent, 10% of the Moon is Illuminated
Dec 10
Waning Crescent
Dec 13
New
Dec 19
First Quarter
Dec 28
Full
Jan 4
Last Quarter

Hourly Weather History & Observations

Time (CST) Temp. Heat Index Dew Point Humidity Pressure Visibility Wind Dir Wind Speed Gust Speed Precip Events Conditions
12:00 AM 70 °F - 62 °F 67% 29.79 in 12 mi ENE 12.7 mph - -  
12:00 AM 69.8 °F - 60.8 °F 73% 29.97 in - ENE 12.7 mph - N/A   Clear
1:00 AM 69.8 °F - 60.8 °F 73% 29.96 in - ESE 2.3 mph - N/A   Clear
2:00 AM 68.0 °F - 60.8 °F 78% 29.95 in - NE 5.8 mph - N/A   Clear
3:00 AM 68 °F - 61 °F 73% 29.78 in 12 mi NE 5.8 mph - -  
3:00 AM 68.0 °F - 60.8 °F 78% 29.95 in - NE 5.8 mph - N/A   Clear
4:00 AM 68.0 °F - 60.8 °F 78% 29.94 in 6.2 mi East 3.5 mph - N/A   Partly Cloudy
5:00 AM 69.8 °F - 60.8 °F 73% 29.95 in 6.2 mi WSW 3.5 mph - N/A   Partly Cloudy
6:00 AM 69 °F - 61 °F 69% 29.85 in 12 mi South 3.5 mph - -   Scattered Clouds
6:00 AM 69.8 °F - 60.8 °F 73% 29.97 in 6.2 mi South 3.5 mph - N/A   Partly Cloudy
7:00 AM 73.4 °F - 62.6 °F 69% 30.00 in 6.2 mi WSW 3.5 mph - N/A   Scattered Clouds
8:00 AM 77.0 °F - 64.4 °F 65% 30.01 in 6.2 mi East 8.1 mph - N/A   Partly Cloudy
9:00 AM 79 °F - 63 °F 49% 29.83 in 12 mi ESE 11.5 mph - -   Scattered Clouds
9:00 AM 78.8 °F - 62.6 °F 57% 30.00 in 6.2 mi ESE 11.5 mph - N/A   Partly Cloudy
10:00 AM 82.4 °F 83.4 °F 62.6 °F 51% 29.99 in 6.2 mi ESE 11.5 mph - N/A   Partly Cloudy
11:00 AM 84.2 °F 85.0 °F 62.6 °F 48% 29.98 in 6.2 mi East 11.5 mph - N/A   Scattered Clouds
12:00 PM 86 °F - 61 °F 32% 29.79 in 12 mi East 9.2 mph - -   Partly Cloudy
12:00 PM 86.0 °F 86.1 °F 60.8 °F 43% 29.95 in 6.2 mi East 9.2 mph - N/A   Scattered Clouds
1:00 PM 84.2 °F 84.4 °F 60.8 °F 45% 29.91 in 6.2 mi East 8.1 mph - N/A   Scattered Clouds
1:40 PM 82.4 °F 86.3 °F 69.8 °F 66% 29.89 in 6.2 mi SW 10.4 mph - N/A   Scattered Clouds
2:00 PM 84.2 °F 87.3 °F 68.0 °F 58% 29.89 in 6.2 mi SW 9.2 mph - N/A   Scattered Clouds
3:00 PM 81 °F - 69 °F 60% 29.72 in 12 mi WSW 10.4 mph - -   Scattered Clouds
3:00 PM 80.6 °F 83.9 °F 69.8 °F 70% 29.88 in 6.2 mi WSW 10.4 mph - N/A   Partly Cloudy
4:00 PM 77.0 °F - 69.8 °F 78% 29.89 in 6.2 mi WSW 11.5 mph - N/A   Partly Cloudy
5:00 PM 73.4 °F - 69.8 °F 88% 29.92 in 6.2 mi WSW 9.2 mph - N/A   Scattered Clouds
6:00 PM 72 °F - 69 °F 88% 29.79 in 5 mi West 5.8 mph - -   Mist
6:00 PM 71.6 °F - 69.8 °F 94% 29.94 in 5.0 mi West 5.8 mph - N/A Fog Fog
7:00 PM 71.6 °F - 69.8 °F 94% 29.97 in 5.0 mi WNW 2.3 mph - N/A Fog Fog
8:00 PM 71.6 °F - 68.0 °F 88% 29.98 in 6.2 mi East 2.3 mph - N/A Fog Scattered Clouds
9:00 PM 71 °F - 65 °F 74% 29.80 in 3 mi East 4.6 mph - - Fog Shallow Fog
9:00 PM 71.6 °F - 64.4 °F 78% 29.99 in 6.2 mi East 4.6 mph - N/A Fog Mostly Cloudy
10:00 PM 71.6 °F - 62.6 °F 73% 30.00 in 6.2 mi SE 3.5 mph - N/A   Mostly Cloudy
11:00 PM 68.0 °F - 66.2 °F 94% 30.00 in 5.0 mi West 4.6 mph - N/A Fog Patches of Fog